AB1IG Weather Reports


Display with metric or nautical units.
time (UTC)temp
F
wind
direction
speed
MPH
gust
MPH
rain 1hr
in
rain 24hr
in
rain mn
in
humidity
%
barometer
mb
20260902124519 78 297 2.0 6.0 0.00 0.00 0.00 69 1011.4
20260902123017 78 290 1.0 6.0 0.00 0.00 0.00 69 1011.2
20260902121515 78 64 1.0 7.0 0.00 0.00 0.00 69 1011.0
20260902120013 78 204 2.0 6.0 0.00 0.00 0.00 68 1010.9
20260902114511 79 173 1.0 6.0 0.00 0.00 0.00 67 1010.7
20260902113008 79 259 2.0 7.0 0.00 0.00 0.00 66 1010.6
20260902111506 80 266 1.0 6.0 0.00 0.00 0.00 65 1010.5
20260902110005 80 249 2.0 7.0 0.00 0.00 0.00 64 1010.4
20260902104502 80 145 2.0 7.0 0.00 0.00 0.00 64 1010.4
20260902103105 80 224 0.0 6.0 0.00 0.00 0.00 63 1010.3
20260902101557 81 269 2.0 7.0 0.00 0.00 0.00 63 1010.3
20260902100100 81 252 1.0 8.0 0.00 0.00 0.00 62 1010.2
20260902094556 81 153 1.0 6.0 0.00 0.00 0.00 62 1010.2
20260902093054 81 143 1.0 7.0 0.00 0.00 0.00 61 1010.2
20260902091603 82 253 1.0 7.0 0.00 0.00 0.00 60 1010.2
20260902090051 82 229 1.0 7.0 0.00 0.00 0.00 59 1010.1
20260902084548 82 208 2.0 6.0 0.00 0.00 0.00 58 1010.0
20260902083109 83 287 2.0 8.0 0.00 0.00 0.00 57 1010.1
20260902081546 83 184 3.0 8.0 0.00 0.00 0.00 57 1010.0
20260902080046 83 253 1.0 6.0 0.00 0.00 0.00 56 1010.1
20260902074544 83 245 0.0 5.0 0.00 0.00 0.00 55 1010.1
20260902073042 83 177 1.0 5.0 0.00 0.00 0.00 54 1010.0
20260902071541 84 283 1.0 6.0 0.00 0.00 0.00 54 1010.1
20260902070042 84 95 1.0 5.0 0.00 0.00 0.00 53 1010.1
20260902064543 84 274 0.0 5.0 0.00 0.00 0.00 53 1010.1
20260902063041 84 200 1.0 6.0 0.00 0.00 0.00 52 1010.1
20260902061545 85 207 1.0 5.0 0.00 0.00 0.00 51 1010.1
20260902060032 86 246 0.0 5.0 0.00 0.00 0.00 51 1010.1
20260902054532 86 79 2.0 7.0 0.00 0.00 0.00 49 1010.0
20260902053027 87 181 1.0 7.0 0.00 0.00 0.00 49 1010.0
20260902051526 87 239 1.0 8.0 0.00 0.00 0.00 49 1009.9
20260902050023 87 205 2.0 5.0 0.00 0.00 0.00 48 1009.9
20260902044528 88 239 1.0 6.0 0.00 0.00 0.00 47 1009.9
20260902043033 88 298 1.0 6.0 0.00 0.00 0.00 46 1009.8
20260902041522 88 82 2.0 5.0 0.00 0.00 0.00 45 1010.0
20260902040022 89 259 2.0 7.0 0.00 0.00 0.00 44 1010.0
20260902034521 89 257 0.0 4.0 0.00 0.00 0.00 44 1010.0
20260902033020 89 99 0.0 4.0 0.00 0.00 0.00 43 1009.9
20260902031533 90 228 1.0 5.0 0.00 0.00 0.00 43 1009.6
20260902030019 89 217 1.0 4.0 0.00 0.00 0.00 43 1009.4
20260902024520 89 245 0.0 1.0 0.00 0.00 0.00 44 1009.2
20260902023029 90 231 0.0 2.0 0.00 0.00 0.00 42 1008.9
20260902021517 91 218 0.0 4.0 0.00 0.00 0.00 41 1008.7
20260902020024 91 126 0.0 4.0 0.00 0.00 0.00 41 1008.5
20260902014520 92 335 0.0 4.0 0.00 0.00 0.00 40 1008.4
20260902013017 92 160 1.0 5.0 0.00 0.00 0.00 40 1008.2
20260902011517 93 246 0.0 4.0 0.00 0.00 0.00 38 1008.3
20260902010021 94 271 0.0 4.0 0.00 0.00 0.00 37 1008.2
20260902004515 94 136 1.0 5.0 0.00 0.00 0.00 35 1008.1
20260902003015 95 128 1.0 6.0 0.00 0.00 0.00 34 1008.0
20260902001514 97 215 0.0 3.0 0.00 0.00 0.00 33 1008.1
20260902000013 96 201 1.0 5.0 0.00 0.00 0.00 33 1008.1
20260901234513 97 255 1.0 6.0 0.00 0.00 0.00 33 1008.2
20260901233114 98 247 0.0 5.0 0.00 0.00 0.00 31 1008.2
20260901231511 99 115 1.0 7.0 0.00 0.00 0.00 30 1008.4
20260901230008 100 186 2.0 6.0 0.00 0.00 0.00 29 1008.5
20260901224511 101 113 1.0 6.0 0.00 0.00 0.00 29 1008.5
20260901223006 101 131 1.0 5.0 0.00 0.00 0.00 28 1008.4
20260901221518 101 107 1.0 7.0 0.00 0.00 0.00 28 1008.5
20260901220005 101 228 1.0 9.0 0.00 0.00 0.00 29 1008.5
20260901214503 102 276 0.0 5.0 0.00 0.00 0.00 28 1008.5
20260901213002 102 221 2.0 5.0 0.00 0.00 0.00 27 1008.8
20260901211559 100 257 2.0 7.0 0.00 0.00 0.00 28 1009.0
20260901210101 101 34 1.0 8.0 0.00 0.00 0.00 29 1009.1
20260901204609 100 233 3.0 8.0 0.00 0.00 0.00 29 1009.3
20260901203059 100 83 1.0 7.0 0.00 0.00 0.00 29 1009.5
20260901201556 99 155 2.0 5.0 0.00 0.00 0.00 28 1009.8
20260901200113 100 186 1.0 4.0 0.00 0.00 0.00 28 1009.9
20260901194604 102 277 2.0 7.0 0.00 0.00 0.00 27 1010.2
20260901193050 102 122 1.0 10.0 0.00 0.00 0.00 28 1010.2
20260901191620 102 316 1.0 10.0 0.00 0.00 0.00 27 1010.4
20260901190038 100 162 0.0 6.0 0.00 0.00 0.00 30 1010.5
20260901184539 100 239 1.0 10.0 0.00 0.00 0.00 28 1010.8
20260901183047 100 148 1.0 4.0 0.00 0.00 0.00 29 1011.0
20260901181535 99 167 1.0 5.0 0.00 0.00 0.00 31 1011.3
20260901180029 98 167 1.0 8.0 0.00 0.00 0.00 31 1011.4
20260901174527 98 291 3.0 7.0 0.00 0.00 0.00 31 1011.7
20260901173024 97 217 2.0 6.0 0.00 0.00 0.00 33 1011.8
20260901171521 98 249 1.0 7.0 0.00 0.00 0.00 33 1012.0
20260901170016 97 153 2.0 8.0 0.00 0.00 0.00 34 1012.1
20260901164516 96 284 2.0 10.0 0.00 0.00 0.00 35 1012.2
20260901163013 96 221 0.0 8.0 0.00 0.00 0.00 36 1012.3
20260901161522 95 125 2.0 6.0 0.00 0.00 0.00 37 1012.3
20260901160008 93 113 3.0 6.0 0.00 0.00 0.00 39 1012.3
20260901154507 92 174 2.0 7.0 0.00 0.00 0.00 41 1012.3
20260901153117 91 277 2.0 7.0 0.00 0.00 0.00 43 1012.3
20260901151555 89 115 2.0 7.0 0.00 0.00 0.00 44 1012.3
20260901144550 86 348 1.0 5.0 0.00 0.00 0.00 49 1012.5
20260901143101 84 136 1.0 6.0 0.00 0.00 0.00 52 1012.7
20260901141544 83 346 2.0 7.0 0.00 0.00 0.00 53 1012.7
20260901140124 82 105 1.0 5.0 0.00 0.00 0.00 55 1012.8
20260901134542 81 259 1.0 5.0 0.00 0.00 0.00 57 1012.7
20260901133042 80 33 1.0 4.0 0.00 0.00 0.00 58 1012.6
20260901131542 79 273 0.0 3.0 0.00 0.00 0.00 59 1012.5
20260901130043 78 226 0.0 5.0 0.00 0.00 0.00 60 1012.3